Wind_Speed
47 46 45 44 44 43 43 42 42 41 40 40 40 40 39 38 37 37 36 36 35 35 34 33 32 31 30 30 30 30 31 32 33 35 38 39 39 40
46 45 44 43 43 42 42 42 41 40 39 39 38 38 37 36 36 36 35 35 34 33 32 31 29 28 27 27 27 28 28 28 29 31 33 35 37 38
44 43 43 42 41 41 41 39 39 38 38 37 37 36 36 35 35 35 34 34 33 32 31 30 28 27 25 25 25 26 26 26 28 29 31 33 35 36
43 42 41 41 40 40 38 38 37 37 37 36 35 35 34 34 34 34 34 33 32 30 29 29 29 28 27 26 25 25 26 26 27 28 30 32 34 36
41 40 40 39 38 38 37 36 36 36 35 35 34 34 34 33 33 33 33 32 31 31 30 29 29 28 28 28 28 27 28 28 29 31 32 34 35 36
40 39 38 37 36 36 35 35 34 34 34 34 33 33 33 33 33 33 32 32 32 32 31 31 30 30 30 30 30 30 31 31 32 33 34 36 37 39
38 37 36 35 35 34 33 33 33 33 33 33 32 32 33 33 33 33 33 33 33 33 33 33 32 32 32 32 33 33 33 34 35 36 38 39 41 42
35 34 34 33 32 31 31 31 31 32 32 32 32 32 33 33 33 33 34 34 34 34 34 35 35 35 35 35 36 36 37 38 39 40 41 42 43 44
33 32 31 30 30 30 30 31 31 31 32 32 33 33 34 34 34 34 35 35 35 36 36 37 37 37 38 39 39 40 41 42 43 44 45 46 47 48
30 30 30 29 29 30 30 30 31 31 32 33 33 34 34 35 35 35 36 36 37 38 38 39 40 41 41 42 43 43 44 45 46 47 48 49 50 51
29 29 29 29 30 30 30 31 31 32 32 33 34 34 35 35 36 37 37 38 39 39 40 41 42 43 44 44 45 46 47 48 49 50 51 52 52 53
29 29 29 29 30 30 31 31 32 33 33 34 35 35 36 37 37 38 39 40 40 41 42 43 44 45 46 47 48 48 49 50 50 51 52 52 53 54
29 29 29 30 30 31 31 32 33 33 34 35 36 36 37 38 39 40 41 41 42 43 44 45 46 47 47 48 49 50 50 50 51 51 50 50 51 52
30 30 30 31 31 32 32 33 34 35 36 36 37 38 39 40 41 42 42 43 44 45 46 46 47 48 49 49 50 50 51 50 50 50 49 48 48 48
31 31 31 32 32 33 33 34 36 36 37 38 39 40 41 41 42 43 44 45 46 46 46 47 48 48 49 49 49 50 50 50 50 49 47 47 46 46
32 32 33 33 34 35 36 36 37 38 39 40 41 41 42 42 43 44 45 46 46 47 47 48 48 49 49 49 49 49 49 49 48 47 45 45 44 44
33 34 34 35 36 37 38 38 39 40 40 41 42 42 43 44 45 45 46 47 47 48 49 49 49 49 49 49 48 48 48 48 46 45 44 43 43 42
34 35 36 37 38 38 39 39 40 41 42 42 43 43 44 45 46 46 47 47 48 49 50 50 49 48 48 47 48 48 48 47 45 44 43 41 40 41
36 37 37 38 39 40 40 41 42 42 42 43 43 44 45 46 47 47 48 48 48 49 50 50 49 47 46 46 47 48 47 46 44 42 41 38 37 38
37 38 39 39 40 40 41 41 42 42 42 43 43 44 45 46 47 48 48 48 48 48 49 49 48 47 46 45 45 46 47 45 43 41 40 37 35 36
38 39 40 40 40 40 41 41 42 42 43 43 45 46 47 47 48 47 47 47 48 48 48 48 48 47 46 45 44 43 45 44 42 40 38 36 34 34
39 40 40 40 41 41 41 42 42 43 43 44 45 46 47 47 47 47 47 48 48 48 47 48 48 47 46 45 43 42 42 42 41 39 38 36 33 31
40 41 41 41 41 42 42 42 43 43 44 45 45 46 46 46 46 46 47 47 48 48 48 48 47 47 46 45 43 41 40 40 40 38 38 37 34 32
Wind_Direction
287 288 289 289 290 291 292 292 292 292 292 293 294 295 294 295 296 297 298 299 301 301 303 305 302 300 295 290 283 278 275 269 265 263 259 255 252 250
286 287 287 288 288 289 291 291 291 292 292 293 294 295 294 295 296 297 298 299 301 301 303 304 304 302 298 292 286 282 276 270 267 266 264 257 252 251
285 285 286 287 287 289 290 290 291 292 293 293 294 294 295 295 296 297 298 300 301 301 301 302 303 303 301 295 290 285 280 274 269 265 263 259 256 254
283 284 285 285 287 288 289 290 291 292 293 293 294 294 295 296 296 297 298 299 300 301 301 301 301 300 298 296 292 287 282 277 272 269 266 261 258 257
281 282 283 285 286 287 289 290 291 292 293 293 294 294 295 296 296 297 297 298 299 300 300 299 299 299 298 296 292 289 284 280 276 272 270 265 261 259
280 281 282 283 285 287 289 290 291 292 293 293 293 294 295 296 297 297 297 297 298 298 298 298 297 297 296 295 292 289 285 281 278 275 272 269 266 264
278 280 281 282 285 287 289 290 291 292 293 293 294 295 296 296 296 296 296 297 297 297 297 297 296 295 294 292 291 289 286 283 280 278 275 272 270 267
277 278 280 283 285 287 289 291 292 293 294 294 295 295 296 296 296 296 296 296 296 296 296 295 295 294 293 292 290 288 286 284 282 279 277 275 271 268
276 278 281 283 285 288 290 292 293 294 294 294 295 296 296 296 296 296 296 296 296 296 296 295 295 294 293 292 290 289 287 285 283 280 278 276 273 271
275 278 281 283 285 288 290 292 293 294 295 295 295 296 296 296 296 296 296 296 296 296 295 295 294 294 293 292 291 289 288 286 284 281 279 277 275 272
275 278 281 284 287 289 290 292 293 294 295 296 296 296 296 296 296 296 296 296 296 296 296 295 295 295 294 293 291 290 289 287 285 284 281 279 276 273
276 279 282 285 288 289 291 292 294 295 295 296 296 296 296 296 296 296 296 296 296 296 296 296 296 296 295 294 293 291 290 288 287 285 283 280 277 274
277 280 283 286 288 290 291 293 294 295 295 296 296 296 296 296 296 296 297 297 297 297 297 297 297 297 297 296 295 293 291 290 289 287 285 282 279 276
278 281 283 286 288 290 292 293 294 295 296 296 296 296 296 296 297 297 297 298 298 298 298 298 298 299 299 298 296 295 294 292 290 288 286 284 282 279
279 281 284 286 289 291 292 294 295 296 296 296 296 297 297 297 297 298 298 299 299 299 299 299 300 301 301 300 298 296 295 295 293 291 288 286 283 280
280 282 285 287 289 291 292 294 294 295 296 296 297 297 297 297 298 299 299 300 300 300 300 300 301 302 301 301 300 298 297 296 294 293 291 288 285 282
281 283 285 286 288 290 292 293 294 295 296 297 298 298 298 298 299 299 300 300 300 300 301 302 302 302 302 301 301 300 299 298 296 293 292 290 287 284
282 283 285 287 289 290 292 293 294 296 296 297 297 298 299 299 299 300 301 301 301 301 302 302 303 303 302 302 302 301 300 299 298 295 294 291 288 285
282 284 286 288 289 290 292 293 295 296 297 297 298 299 299 300 300 301 301 301 301 302 302 303 303 303 303 303 302 302 301 301 300 298 295 292 289 286
283 285 287 288 290 291 292 294 295 296 297 298 299 299 300 301 301 301 301 302 302 303 303 303 303 303 304 303 303 301 301 301 300 299 297 294 290 287
284 285 287 289 290 292 293 294 295 296 297 298 299 300 301 301 301 301 302 302 303 303 303 303 303 304 304 304 303 302 301 301 301 300 298 295 292 289
284 286 288 290 291 292 293 294 295 297 298 299 300 300 301 301 302 302 302 303 303 304 303 303 304 304 304 304 303 302 300 300 301 301 299 296 293 289
284 286 288 290 291 293 294 294 295 297 298 300 301 301 302 302 302 303 303 304 304 304 304 304 304 304 304 304 303 302 300 299 300 300 299 297 295 292
Height
5753 5750 5747 5744 5741 5738 5735 5731 5728 5725 5721 5717 5713 5709 5706 5703 5699 5696 5693 5689 5685 5681 5676 5671 5667 5662 5659 5656 5654 5652 5651 5651 5652 5654 5656 5657 5660 5663
5743 5740 5737 5734 5731 5728 5725 5721 5718 5714 5711 5708 5704 5700 5697 5694 5691 5687 5684 5681 5677 5673 5669 5664 5660 5656 5652 5650 5647 5646 5645 5644 5644 5645 5647 5648 5650 5653
5732 5729 5727 5724 5721 5718 5715 5711 5708 5705 5702 5698 5695 5691 5688 5685 5682 5679 5676 5672 5669 5665 5661 5657 5654 5650 5647 5644 5642 5640 5639 5638 5637 5638 5639 5640 5641 5644
5721 5719 5717 5714 5711 5708 5705 5701 5698 5695 5692 5689 5686 5683 5680 5676 5673 5670 5667 5664 5661 5657 5654 5651 5647 5644 5641 5638 5636 5634 5632 5631 5631 5631 5631 5632 5633 5634
5711 5709 5706 5704 5701 5698 5695 5692 5689 5686 5683 5680 5677 5674 5671 5668 5665 5662 5659 5656 5653 5649 5646 5644 5640 5638 5635 5632 5630 5628 5626 5625 5624 5623 5623 5623 5624 5625
5700 5698 5696 5694 5691 5689 5686 5683 5680 5677 5674 5671 5668 5665 5663 5659 5656 5653 5650 5647 5645 5641 5638 5636 5633 5630 5627 5625 5622 5620 5618 5617 5615 5615 5614 5614 5614 5614
5690 5688 5686 5684 5682 5679 5677 5674 5671 5668 5665 5663 5660 5657 5654 5651 5648 5645 5642 5639 5636 5633 5630 5627 5624 5622 5619 5616 5614 5611 5609 5608 5606 5605 5604 5603 5603 5602
5680 5678 5676 5674 5672 5670 5668 5665 5662 5660 5657 5654 5651 5648 5646 5642 5639 5636 5633 5630 5627 5624 5621 5618 5615 5612 5609 5607 5604 5601 5599 5597 5595 5593 5592 5591 5590 5589
5670 5669 5667 5665 5663 5661 5659 5656 5654 5651 5648 5646 5643 5640 5637 5634 5630 5627 5624 5621 5618 5614 5611 5608 5605 5602 5599 5595 5593 5590 5587 5585 5582 5580 5578 5576 5575 5574
5661 5660 5659 5657 5655 5653 5650 5648 5645 5642 5640 5637 5634 5631 5627 5624 5621 5618 5614 5611 5607 5604 5600 5597 5594 5590 5587 5583 5580 5576 5573 5571 5568 5565 5563 5561 5559 5558
5653 5651 5650 5648 5646 5644 5642 5639 5636 5634 5631 5628 5625 5621 5618 5614 5611 5608 5604 5601 5597 5593 5589 5585 5581 5577 5573 5570 5566 5562 5558 5555 5552 5549 5546 5543 5541 5540
5644 5643 5641 5639 5637 5635 5633 5630 5627 5625 5621 5618 5615 5612 5608 5604 5601 5597 5593 5590 5586 5582 5577 5573 5569 5564 5560 5555 5550 5546 5542 5539 5535 5531 5528 5525 5522 5520
5635 5634 5632 5631 5628 5626 5623 5621 5618 5615 5612 5609 5605 5602 5598 5594 5590 5586 5582 5578 5574 5569 5565 5560 5555 5550 5545 5540 5534 5530 5526 5522 5518 5514 5510 5507 5504 5501
5627 5625 5623 5621 5619 5617 5614 5611 5608 5605 5602 5598 5595 5591 5587 5583 5579 5575 5570 5566 5561 5557 5552 5547 5541 5536 5530 5524 5519 5513 5509 5505 5501 5497 5493 5489 5486 5483
5618 5616 5614 5612 5610 5607 5604 5601 5598 5595 5591 5588 5584 5580 5576 5571 5567 5563 5558 5553 5548 5543 5538 5533 5528 5522 5516 5510 5504 5497 5492 5487 5483 5479 5475 5472 5468 5465
5608 5606 5604 5602 5600 5597 5594 5591 5588 5584 5580 5576 5572 5568 5564 5559 5555 5550 5545 5540 5535 5530 5525 5520 5514 5508 5502 5495 5489 5483 5477 5472 5466 5462 5459 5455 5451 5448
5598 5596 5594 5592 5589 5587 5583 5580 5577 5573 5569 5565 5560 5556 5552 5547 5542 5538 5532 5527 5522 5516 5511 5506 5500 5494 5488 5481 5475 5468 5462 5457 5452 5447 5443 5440 5436 5432
5588 5586 5584 5581 5579 5576 5572 5569 5565 5561 5557 5553 5548 5544 5539 5534 5530 5525 5520 5514 5508 5503 5497 5492 5486 5481 5475 5468 5461 5454 5448 5443 5438 5433 5429 5425 5422 5417
5577 5575 5573 5570 5567 5564 5561 5557 5554 5550 5545 5541 5536 5532 5527 5522 5517 5512 5506 5501 5495 5489 5483 5477 5472 5467 5461 5455 5448 5440 5434 5429 5424 5419 5415 5412 5408 5404
5566 5564 5561 5559 5556 5552 5549 5545 5541 5537 5533 5529 5524 5519 5514 5509 5504 5498 5493 5488 5482 5476 5469 5463 5458 5453 5447 5442 5436 5428 5420 5415 5411 5406 5402 5398 5395 5392
5555 5553 5550 5547 5544 5540 5537 5533 5529 5525 5521 5516 5512 5507 5502 5496 5491 5485 5480 5474 5468 5463 5456 5450 5444 5439 5433 5428 5423 5416 5408 5402 5397 5393 5389 5385 5383 5379
5544 5541 5538 5535 5532 5529 5525 5521 5517 5513 5509 5504 5499 5494 5489 5483 5478 5472 5467 5461 5455 5449 5443 5437 5431 5425 5419 5414 5409 5403 5397 5390 5385 5381 5377 5373 5370 5368
5532 5529 5527 5524 5520 5517 5513 5509 5505 5501 5496 5492 5486 5481 5476 5470 5465 5459 5453 5448 5442 5436 5430 5424 5418 5412 5406 5400 5395 5390 5385 5379 5374 5370 5365 5360 5358 5356